,,PA_Meas_PMT16A,,PR_Meas_QMR101_102,,RH_Meas_QMH101,,SR_Meas_QMS101,,TA_Meas_QMH101,,GenWind,,GenWind,
time,status,PA,status,PR,status,RH,status,SR,status,TA,status,DirAvg,status,SpdAvg,
2010-12-30, 00:00:04,VALID,916.952,VALID,0,VALID,97.0766,VALID,0,VALID,19.2918,VALID,93,VALID,0.223047,
2010-12-30, 00:01:04,VALID,916.935,VALID,0,VALID,97.0537,VALID,0,VALID,19.2918,VALID,94,VALID,0.183984,
2010-12-30, 00:02:04,VALID,916.933,VALID,0,VALID,97.0461,VALID,0,VALID,19.2723,VALID,93,VALID,0,
2010-12-30, 00:03:04,VALID,916.912,VALID,0,VALID,97.0308,VALID,0,VALID,19.2933,VALID,93,VALID,0,
2010-12-30, 00:04:04,VALID,916.866,VALID,0,VALID,96.9775,VALID,0,VALID,19.2543,VALID,93,VALID,0.425391,
2010-12-30, 00:05:04,VALID,916.823,VALID,0,VALID,97.008,VALID,0,VALID,19.1944,VALID,93,VALID,0.602734,
2010-12-30, 00:06:04,VALID,916.815,VALID,0,VALID,97.0003,VALID,0,VALID,19.1958,VALID,94,VALID,0.691797,
2010-12-30, 00:07:04,VALID,916.792,VALID,0,VALID,97.0461,VALID,0,VALID,19.1958,VALID,93,VALID,0.842969,
2010-12-30, 00:08:04,VALID,916.785,VALID,0,VALID,97.0232,VALID,0,VALID,19.1763,VALID,93,VALID,0.791797,
2010-12-30, 00:09:04,VALID,916.766,VALID,0,VALID,97.0003,VALID,0,VALID,19.1568,VALID,93,VALID,0.966406,
2010-12-30, 00:10:04,VALID,916.796,VALID,0,VALID,97.008,VALID,0,VALID,19.1373,VALID,93,VALID,0.930469,
2010-12-30, 00:11:04,VALID,916.764,VALID,0,VALID,97.0308,VALID,0,VALID,19.1373,VALID,94,VALID,0.768359,
2010-12-30, 00:12:04,VALID,916.778,VALID,0,VALID,97.0308,VALID,0,VALID,19.0969,VALID,94,VALID,1.08867,
2010-12-30, 00:13:04,VALID,916.819,VALID,0,VALID,96.9927,VALID,0,VALID,19.0983,VALID,93,VALID,1.21016,
2010-12-30, 00:14:04,VALID,916.784,VALID,0,VALID,97.0232,VALID,0,VALID,19.0983,VALID,94,VALID,0.886719,
2010-12-30, 00:15:04,VALID,916.762,VALID,0,VALID,97.0232,VALID,0,VALID,19.0983,VALID,93,VALID,1.07773,
2010-12-30, 00:16:04,VALID,916.75,VALID,0,VALID,97.0308,VALID,0,VALID,19.1193,VALID,94,VALID,0.762109,
2010-12-30, 00:17:04,VALID,916.746,VALID,0,VALID,97.0385,VALID,0,VALID,19.0983,VALID,93,VALID,1.23281,
2010-12-30, 00:18:04,VALID,916.726,VALID,0,VALID,97.069,VALID,0,VALID,19.1178,VALID,93,VALID,1.23711,
2010-12-30, 00:19:04,VALID,916.665,VALID,0,VALID,97.069,VALID,0,VALID,19.1178,VALID,93,VALID,0.728906,
2010-12-30, 00:20:04,VALID,916.669,VALID,0,VALID,97.069,VALID,0,VALID,19.1373,VALID,93,VALID,0.707422,
2010-12-30, 00:21:04,VALID,916.69,VALID,0,VALID,97.0842,VALID,0,VALID,19.1778,VALID,93,VALID,1.1168,
2010-12-30, 00:22:04,VALID,916.643,VALID,0,VALID,97.0918,VALID,0,VALID,19.1568,VALID,93,VALID,0.895312,
2010-12-30, 00:23:04,VALID,916.615,VALID,0,VALID,97.0842,VALID,0,VALID,19.1763,VALID,93,VALID,0.523438,
2010-12-30, 00:24:04,VALID,916.588,VALID,0,VALID,97.0842,VALID,0,VALID,19.1958,VALID,93,VALID,0.647656,
2010-12-30, 00:25:04,VALID,916.581,VALID,0,VALID,97.0918,VALID,0,VALID,19.1958,VALID,93,VALID,0.436719,
2010-12-30, 00:26:04,VALID,916.566,VALID,0,VALID,97.069,VALID,0,VALID,19.1958,VALID,93,VALID,0.467187,
2010-12-30, 00:27:04,VALID,916.56,VALID,0,VALID,97.0994,VALID,0,VALID,19.2153,VALID,93,VALID,0.603516,
2010-12-30, 00:28:04,VALID,916.573,VALID,0,VALID,97.069,VALID,0,VALID,19.2168,VALID,93,VALID,0.826953,
2010-12-30, 00:29:04,VALID,916.573,VALID,0,VALID,97.0918,VALID,0,VALID,19.2168,VALID,93,VALID,0.208203,
2010-12-30, 00:30:04,VALID,916.575,VALID,0,VALID,97.069,VALID,0,VALID,19.2168,VALID,93,VALID,0.442969,
2010-12-30, 00:31:04,VALID,916.61,VALID,0,VALID,97.0766,VALID,0,VALID,19.1958,VALID,93,VALID,1.02344,
2010-12-30, 00:32:04,VALID,916.59,VALID,0,VALID,97.069,VALID,0,VALID,19.1778,VALID,93,VALID,0.74375,
2010-12-30, 00:33:04,VALID,916.63,VALID,0,VALID,97.069,VALID,0,VALID,19.1568,VALID,93,VALID,1.18906,
2010-12-30, 00:34:04,VALID,916.628,VALID,0,VALID,97.0918,VALID,0,VALID,19.1778,VALID,93,VALID,0.901953,
2010-12-30, 00:35:04,VALID,916.614,VALID,0,VALID,97.0766,VALID,0,VALID,19.1568,VALID,93,VALID,0.653125,
2010-12-30, 00:36:04,VALID,916.602,VALID,0,VALID,97.1223,VALID,0,VALID,19.1958,VALID,93,VALID,0.607813,
2010-12-30, 00:37:04,VALID,916.599,VALID,0,VALID,97.0918,VALID,0,VALID,19.1778,VALID,93,VALID,1.25352,
2010-12-30, 00:38:04,VALID,916.569,VALID,0,VALID,97.0918,VALID,0,VALID,19.1778,VALID,93,VALID,0.955078,
2010-12-30, 00:39:04,VALID,916.554,VALID,0,VALID,97.069,VALID,0,VALID,19.1373,VALID,94,VALID,0.907812,
2010-12-30, 00:40:04,VALID,916.536,VALID,0,VALID,97.0842,VALID,0,VALID,19.1373,VALID,94,VALID,0.882813,
2010-12-30, 00:41:04,VALID,916.524,VALID,0,VALID,97.0994,VALID,0,VALID,19.1373,VALID,94,VALID,0.509766,
2010-12-30, 00:42:04,VALID,916.469,VALID,0,VALID,97.0918,VALID,0,VALID,19.1373,VALID,93,VALID,1.16328,
2010-12-30, 00:43:04,VALID,916.43,VALID,0,VALID,97.0842,VALID,0,VALID,19.1388,VALID,94,VALID,0.9,
2010-12-30, 00:44:04,VALID,916.43,VALID,0,VALID,97.0994,VALID,0,VALID,19.1178,VALID,94,VALID,0.784375,
2010-12-30, 00:45:04,VALID,916.405,VALID,0,VALID,97.0842,VALID,0,VALID,19.1373,VALID,93,VALID,0.928125,
2010-12-30, 00:46:04,VALID,916.392,VALID,0,VALID,97.069,VALID,0,VALID,19.1178,VALID,93,VALID,0.98125,
2010-12-30, 00:47:04,VALID,916.389,VALID,0,VALID,97.0842,VALID,0,VALID,19.1568,VALID,94,VALID,0.324609,
2010-12-30, 00:48:04,VALID,916.362,VALID,0,VALID,97.0766,VALID,0,VALID,19.1973,VALID,93,VALID,0.715625,
2010-12-30, 00:49:04,VALID,916.361,VALID,0,VALID,97.0613,VALID,0,VALID,19.1778,VALID,94,VALID,0.671094,
2010-12-30, 00:50:04,VALID,916.329,VALID,0,VALID,97.0385,VALID,0,VALID,19.1568,VALID,94,VALID,0.642187,
2010-12-30, 00:51:04,VALID,916.302,VALID,0,VALID,97.0003,VALID,0,VALID,19.1763,VALID,93,VALID,0.276172,
2010-12-30, 00:52:04,VALID,916.29,VALID,0,VALID,97.0156,VALID,0,VALID,19.1763,VALID,94,VALID,0.189063,
2010-12-30, 00:53:04,VALID,916.257,VALID,0,VALID,96.9851,VALID,0,VALID,19.2153,VALID,93,VALID,0.112109,
2010-12-30, 00:54:04,VALID,916.244,VALID,0,VALID,96.947,VALID,0,VALID,19.1958,VALID,94,VALID,0.870703,
2010-12-30, 00:55:04,VALID,916.241,VALID,0,VALID,96.9012,VALID,0,VALID,19.1958,VALID,94,VALID,0.655078,
2010-12-30, 00:56:04,VALID,916.239,VALID,0,VALID,96.8403,VALID,0,VALID,19.2153,VALID,94,VALID,0.379297,
2010-12-30, 00:57:04,VALID,916.218,VALID,0,VALID,96.8326,VALID,0,VALID,19.2168,VALID,94,VALID,0.671484,
2010-12-30, 00:58:04,VALID,916.212,VALID,0,VALID,96.8021,VALID,0,VALID,19.1958,VALID,94,VALID,0.480469,
2010-12-30, 00:59:04,VALID,916.216,VALID,0,VALID,96.7335,VALID,0,VALID,19.1958,VALID,94,VALID,0.750781,
2010-12-30, 01:00:04,VALID,916.187,VALID,0,VALID,96.7259,VALID,0,VALID,19.2153,VALID,94,VALID,0.632422,
2010-12-30, 01:01:04,VALID,916.214,VALID,0,VALID,96.6649,VALID,0,VALID,19.2153,VALID,94,VALID,0.477734,
2010-12-30, 01:02:04,VALID,916.196,VALID,0,VALID,96.5811,VALID,0,VALID,19.1958,VALID,94,VALID,0.585547,
2010-12-30, 01:03:04,VALID,916.189,VALID,0,VALID,96.5506,VALID,0,VALID,19.1958,VALID,94,VALID,0.403516,
2010-12-30, 01:04:04,VALID,916.181,VALID,0,VALID,96.4591,VALID,0,VALID,19.1763,VALID,94,VALID,0.51875,
2010-12-30, 01:05:04,VALID,916.147,VALID,0,VALID,96.3829,VALID,0,VALID,19.1568,VALID,94,VALID,0.752344,
2010-12-30, 01:06:04,VALID,916.109,VALID,0,VALID,96.3219,VALID,0,VALID,19.1178,VALID,94,VALID,0.875391,
2010-12-30, 01:07:04,VALID,916.118,VALID,0,VALID,96.299,VALID,0,VALID,19.1178,VALID,94,VALID,0.994922,
2010-12-30, 01:08:04,VALID,916.11,VALID,0,VALID,96.2761,VALID,0,VALID,19.0983,VALID,94,VALID,0.957812,
2010-12-30, 01:09:04,VALID,916.117,VALID,0,VALID,96.3142,VALID,0,VALID,19.0788,VALID,94,VALID,0.990234,
2010-12-30, 01:10:04,VALID,916.09,VALID,0,VALID,96.3142,VALID,0,VALID,19.0593,VALID,94,VALID,0.666016,
2010-12-30, 01:11:04,VALID,916.112,VALID,0,VALID,96.299,VALID,0,VALID,19.0579,VALID,94,VALID,0.341016,
2010-12-30, 01:12:04,VALID,916.114,VALID,0,VALID,96.3142,VALID,0,VALID,19.0593,VALID,94,VALID,0.190625,
2010-12-30, 01:13:04,VALID,916.084,VALID,0,VALID,96.3524,VALID,0,VALID,19.0593,VALID,94,VALID,0,
2010-12-30, 01:14:04,VALID,916.093,VALID,0,VALID,96.3829,VALID,0,VALID,19.0593,VALID,94,VALID,0,
2010-12-30, 01:15:04,VALID,916.073,VALID,0,VALID,96.421,VALID,0,VALID,19.0593,VALID,94,VALID,0,
2010-12-30, 01:16:04,VALID,916.043,VALID,0,VALID,96.421,VALID,0,VALID,19.0579,VALID,94,VALID,0,
2010-12-30, 01:17:04,VALID,916.068,VALID,0,VALID,96.4438,VALID,0,VALID,19.0788,VALID,94,VALID,0,
2010-12-30, 01:18:04,VALID,916.034,VALID,0,VALID,96.4057,VALID,0,VALID,19.0788,VALID,94,VALID,0,
2010-12-30, 01:19:04,VALID,916.003,VALID,0,VALID,96.3829,VALID,0,VALID,19.0398,VALID,94,VALID,0.331641,
2010-12-30, 01:20:04,VALID,915.989,VALID,0,VALID,96.3829,VALID,0,VALID,19.0203,VALID,94,VALID,0.392969,
2010-12-30, 01:21:04,VALID,915.967,VALID,0,VALID,96.4362,VALID,0,VALID,19.0398,VALID,94,VALID,0.794531,
2010-12-30, 01:22:04,VALID,915.943,VALID,0,VALID,96.4362,VALID,0,VALID,19.0203,VALID,94,VALID,0.707031,
2010-12-30, 01:23:04,VALID,915.938,VALID,0,VALID,96.4667,VALID,0,VALID,19.0203,VALID,94,VALID,0.363281,
2010-12-30, 01:24:04,VALID,915.927,VALID,0,VALID,96.5201,VALID,0,VALID,19.0203,VALID,94,VALID,0.569922,
2010-12-30, 01:25:04,VALID,915.898,VALID,0,VALID,96.5201,VALID,0,VALID,19.0203,VALID,94,VALID,0.248437,
2010-12-30, 01:26:04,VALID,915.887,VALID,0,VALID,96.5124,VALID,0,VALID,19.0008,VALID,94,VALID,0.433984,
2010-12-30, 01:27:04,VALID,915.892,VALID,0,VALID,96.5277,VALID,0,VALID,19.0008,VALID,94,VALID,0.232422,
2010-12-30, 01:28:04,VALID,915.876,VALID,0,VALID,96.5353,VALID,0,VALID,19.0023,VALID,94,VALID,0.215625,
2010-12-30, 01:29:04,VALID,915.889,VALID,0,VALID,96.5811,VALID,0,VALID,19.0008,VALID,94,VALID,0,
2010-12-30, 01:30:04,VALID,915.866,VALID,0,VALID,96.5887,VALID,0,VALID,18.9814,VALID,94,VALID,0,
2010-12-30, 01:31:04,VALID,915.864,VALID,0,VALID,96.5658,VALID,0,VALID,18.9619,VALID,94,VALID,0,
2010-12-30, 01:32:04,VALID,915.877,VALID,0,VALID,96.5506,VALID,0,VALID,18.9619,VALID,94,VALID,0,
2010-12-30, 01:33:04,VALID,915.822,VALID,0,VALID,96.5277,VALID,0,VALID,18.9438,VALID,94,VALID,0.561719,
2010-12-30, 01:34:04,VALID,915.818,VALID,0,VALID,96.5124,VALID,0,VALID,18.8839,VALID,94,VALID,0.638281,
2010-12-30, 01:35:04,VALID,915.826,VALID,0,VALID,96.5353,VALID,0,VALID,18.9048,VALID,94,VALID,0.735547,
2010-12-30, 01:36:04,VALID,915.792,VALID,0,VALID,96.6115,VALID,0,VALID,18.8839,VALID,94,VALID,0.480859,
2010-12-30, 01:37:04,VALID,915.785,VALID,0,VALID,96.5963,VALID,0,VALID,18.8839,VALID,94,VALID,0.360547,
2010-12-30, 01:38:04,VALID,915.795,VALID,0,VALID,96.642,VALID,0,VALID,18.8839,VALID,94,VALID,0.528125,
2010-12-30, 01:39:04,VALID,915.77,VALID,0,VALID,96.6344,VALID,0,VALID,18.8839,VALID,94,VALID,0.679688,
2010-12-30, 01:40:04,VALID,915.775,VALID,0,VALID,96.6497,VALID,0,VALID,18.8839,VALID,94,VALID,0.734375,
2010-12-30, 01:41:04,VALID,915.756,VALID,0,VALID,96.6344,VALID,0,VALID,18.9034,VALID,94,VALID,0.538672,
2010-12-30, 01:42:04,VALID,915.766,VALID,0,VALID,96.6115,VALID,0,VALID,18.9048,VALID,94,VALID,0.595312,
2010-12-30, 01:43:04,VALID,915.736,VALID,0,VALID,96.6192,VALID,0,VALID,18.8644,VALID,94,VALID,0.617188,
2010-12-30, 01:44:04,VALID,915.747,VALID,0,VALID,96.5658,VALID,0,VALID,18.8853,VALID,94,VALID,0.620703,
2010-12-30, 01:45:04,VALID,915.722,VALID,0,VALID,96.5887,VALID,0,VALID,18.8434,VALID,94,VALID,0.807813,
2010-12-30, 01:46:04,VALID,915.742,VALID,0,VALID,96.6115,VALID,0.107441,VALID,18.8434,VALID,94,VALID,1.01641,
2010-12-30, 01:47:04,VALID,915.731,VALID,0,VALID,96.5887,VALID,0,VALID,18.8254,VALID,94,VALID,0.891797,
2010-12-30, 01:48:04,VALID,915.764,VALID,0,VALID,96.5887,VALID,0.107441,VALID,18.824,VALID,94,VALID,0.998047,
2010-12-30, 01:49:04,VALID,915.734,VALID,0,VALID,96.6115,VALID,0,VALID,18.824,VALID,94,VALID,1.13906,
2010-12-30, 01:50:04,VALID,915.722,VALID,0,VALID,96.5582,VALID,0.107441,VALID,18.8434,VALID,94,VALID,1.1207,
2010-12-30, 01:51:04,VALID,915.721,VALID,0,VALID,96.5429,VALID,0,VALID,18.8045,VALID,94,VALID,1.11602,
2010-12-30, 01:52:04,VALID,915.676,VALID,0,VALID,96.5201,VALID,0,VALID,18.8045,VALID,94,VALID,0.958203,
2010-12-30, 01:53:04,VALID,915.671,VALID,0,VALID,96.5811,VALID,0,VALID,18.824,VALID,94,VALID,0.902344,
2010-12-30, 01:54:04,VALID,915.598,VALID,0,VALID,96.5734,VALID,0.107441,VALID,18.8045,VALID,94,VALID,1.04727,
2010-12-30, 01:55:04,VALID,915.62,VALID,0,VALID,96.5506,VALID,0.107441,VALID,18.8045,VALID,94,VALID,0.683984,
2010-12-30, 01:56:04,VALID,915.615,VALID,0,VALID,96.5811,VALID,0.107441,VALID,18.8045,VALID,94,VALID,1.08906,
2010-12-30, 01:57:04,VALID,915.609,VALID,0,VALID,96.5353,VALID,0.107441,VALID,18.8045,VALID,94,VALID,0.694922,
2010-12-30, 01:58:04,VALID,915.585,VALID,0,VALID,96.5353,VALID,0,VALID,18.785,VALID,94,VALID,1.00312,
2010-12-30, 01:59:04,VALID,915.586,VALID,0,VALID,96.5506,VALID,0.107441,VALID,18.8045,VALID,94,VALID,0.974219,
2010-12-30, 02:00:04,VALID,915.583,VALID,0,VALID,96.5811,VALID,0,VALID,18.8073,VALID,94,VALID,0.84375,
2010-12-30, 02:01:04,VALID,915.596,VALID,0,VALID,96.6192,VALID,0,VALID,18.8073,VALID,94,VALID,0.521484,
2010-12-30, 02:02:04,VALID,915.608,VALID,0,VALID,96.6039,VALID,0,VALID,18.8059,VALID,94,VALID,0.867188,
2010-12-30, 02:03:04,VALID,915.587,VALID,0,VALID,96.5963,VALID,0,VALID,18.7864,VALID,94,VALID,0.953125,
2010-12-30, 02:04:04,VALID,915.603,VALID,0,VALID,96.6115,VALID,0,VALID,18.8059,VALID,93,VALID,0.0945313,
2010-12-30, 02:05:04,VALID,915.58,VALID,0,VALID,96.6039,VALID,0,VALID,18.7669,VALID,94,VALID,0.832812,
2010-12-30, 02:06:04,VALID,915.572,VALID,0,VALID,96.5582,VALID,0,VALID,18.7878,VALID,94,VALID,0.888672,
2010-12-30, 02:07:04,VALID,915.558,VALID,0,VALID,96.6039,VALID,0,VALID,18.7669,VALID,93,VALID,0.703906,
2010-12-30, 02:08:04,VALID,915.554,VALID,0,VALID,96.6039,VALID,0,VALID,18.7669,VALID,93,VALID,1.07617,
2010-12-30, 02:09:04,VALID,915.576,VALID,0,VALID,96.5887,VALID,0,VALID,18.7669,VALID,93,VALID,1.12109,
2010-12-30, 02:10:04,VALID,915.539,VALID,0,VALID,96.6115,VALID,0,VALID,18.8463,VALID,93,VALID,0.921875,
2010-12-30, 02:11:04,VALID,915.541,VALID,0,VALID,96.5734,VALID,0,VALID,18.8059,VALID,93,VALID,0.664844,
2010-12-30, 02:12:04,VALID,915.523,VALID,0,VALID,96.5429,VALID,0,VALID,18.8268,VALID,93,VALID,0.496484,
2010-12-30, 02:13:04,VALID,915.505,VALID,0,VALID,96.4972,VALID,0,VALID,18.8268,VALID,93,VALID,0.608984,
2010-12-30, 02:14:04,VALID,915.495,VALID,0,VALID,96.4362,VALID,0,VALID,18.7864,VALID,94,VALID,0.702344,
2010-12-30, 02:15:04,VALID,915.531,VALID,0,VALID,96.4362,VALID,0,VALID,18.8268,VALID,94,VALID,0.696484,
2010-12-30, 02:16:04,VALID,915.486,VALID,0,VALID,96.4515,VALID,0,VALID,18.8254,VALID,93,VALID,0.321094,
2010-12-30, 02:17:04,VALID,915.532,VALID,0,VALID,96.421,VALID,0,VALID,18.8463,VALID,94,VALID,0.628906,
2010-12-30, 02:18:04,VALID,915.509,VALID,0,VALID,96.3752,VALID,0,VALID,18.8463,VALID,94,VALID,0.7,
2010-12-30, 02:19:04,VALID,915.485,VALID,0,VALID,96.3219,VALID,0,VALID,18.8463,VALID,94,VALID,0.789453,
2010-12-30, 02:20:04,VALID,915.469,VALID,0,VALID,96.299,VALID,0,VALID,18.8449,VALID,94,VALID,0.974219,
2010-12-30, 02:21:04,VALID,915.467,VALID,0,VALID,96.238,VALID,0,VALID,18.8449,VALID,94,VALID,1.17031,
2010-12-30, 02:22:04,VALID,915.431,VALID,0,VALID,96.1541,VALID,0,VALID,18.8449,VALID,94,VALID,1.29688,
2010-12-30, 02:23:04,VALID,915.417,VALID,0,VALID,96.055,VALID,0,VALID,18.8644,VALID,94,VALID,0.806641,
2010-12-30, 02:24:04,VALID,915.382,VALID,0,VALID,95.9788,VALID,0,VALID,18.8644,VALID,94,VALID,1.34336,
2010-12-30, 02:25:04,VALID,915.377,VALID,0,VALID,95.9178,VALID,0,VALID,18.8853,VALID,94,VALID,0.791797,
2010-12-30, 02:26:04,VALID,915.41,VALID,0,VALID,95.8645,VALID,0,VALID,18.8853,VALID,94,VALID,0.657422,
2010-12-30, 02:27:04,VALID,915.39,VALID,0,VALID,95.8035,VALID,0,VALID,18.8853,VALID,94,VALID,0.714063,
2010-12-30, 02:28:04,VALID,915.391,VALID,0,VALID,95.773,VALID,0,VALID,18.8644,VALID,94,VALID,0.46875,
2010-12-30, 02:29:04,VALID,915.399,VALID,0,VALID,95.7654,VALID,0,VALID,18.8644,VALID,94,VALID,0.0984375,
2010-12-30, 02:30:04,VALID,915.374,VALID,0,VALID,95.7425,VALID,0,VALID,18.824,VALID,94,VALID,0.0921875,
2010-12-30, 02:31:04,VALID,915.361,VALID,0,VALID,95.7425,VALID,0.107441,VALID,18.824,VALID,94,VALID,0.257031,
2010-12-30, 02:32:04,VALID,915.352,VALID,0,VALID,95.7806,VALID,0.107441,VALID,18.824,VALID,94,VALID,0.162109,
2010-12-30, 02:33:04,VALID,915.358,VALID,0,VALID,95.8187,VALID,0.107441,VALID,18.8434,VALID,94,VALID,0.352734,
2010-12-30, 02:34:04,VALID,915.382,VALID,0,VALID,95.9102,VALID,0.107441,VALID,18.8629,VALID,94,VALID,0.00351562,
2010-12-30, 02:35:04,VALID,915.343,VALID,0,VALID,95.9331,VALID,0.107441,VALID,18.8629,VALID,94,VALID,0.303125,
2010-12-30, 02:36:04,VALID,915.324,VALID,0,VALID,95.9178,VALID,0.107441,VALID,18.8824,VALID,94,VALID,0.0175781,
2010-12-30, 02:37:04,VALID,915.343,VALID,0,VALID,95.8797,VALID,0.107441,VALID,18.8824,VALID,94,VALID,0,
2010-12-30, 02:38:04,VALID,915.291,VALID,0,VALID,95.8873,VALID,0.107441,VALID,18.8629,VALID,94,VALID,0,
2010-12-30, 02:39:04,VALID,915.274,VALID,0,VALID,95.8797,VALID,0.107441,VALID,18.9034,VALID,94,VALID,0,
2010-12-30, 02:40:04,VALID,915.242,VALID,0,VALID,95.8873,VALID,0,VALID,18.9019,VALID,94,VALID,0,
2010-12-30, 02:41:04,VALID,915.23,VALID,0,VALID,95.8492,VALID,0.107441,VALID,18.8824,VALID,94,VALID,0.0117188,
2010-12-30, 02:42:04,VALID,915.218,VALID,0,VALID,95.8263,VALID,0,VALID,18.9019,VALID,94,VALID,0,
2010-12-30, 02:43:04,VALID,915.189,VALID,0,VALID,95.7882,VALID,0,VALID,18.9229,VALID,94,VALID,0.0113281,
2010-12-30, 02:44:04,VALID,915.217,VALID,0,VALID,95.7501,VALID,0.107441,VALID,18.9424,VALID,94,VALID,0.254297,
2010-12-30, 02:45:04,VALID,915.198,VALID,0,VALID,95.6967,VALID,0,VALID,18.9243,VALID,94,VALID,0.00195313,
2010-12-30, 02:46:04,VALID,915.172,VALID,0,VALID,95.6434,VALID,0,VALID,18.9034,VALID,94,VALID,0,
2010-12-30, 02:47:04,VALID,915.187,VALID,0,VALID,95.5367,VALID,0,VALID,18.9034,VALID,94,VALID,0.0273438,
2010-12-30, 02:48:04,VALID,915.183,VALID,0,VALID,95.4757,VALID,0,VALID,18.8644,VALID,94,VALID,0.109375,
2010-12-30, 02:49:04,VALID,915.161,VALID,0,VALID,95.3232,VALID,0,VALID,18.8449,VALID,94,VALID,0,
2010-12-30, 02:50:04,VALID,915.157,VALID,0,VALID,95.1936,VALID,0,VALID,18.8268,VALID,94,VALID,0.0183594,
2010-12-30, 02:51:04,VALID,915.135,VALID,0,VALID,95.1021,VALID,0,VALID,18.7669,VALID,94,VALID,0.0472656,
2010-12-30, 02:52:04,VALID,915.126,VALID,0,VALID,95.1021,VALID,0,VALID,18.7488,VALID,94,VALID,0.256641,
2010-12-30, 02:53:04,VALID,915.139,VALID,0,VALID,95.3156,VALID,0,VALID,18.7293,VALID,94,VALID,0.597266,
2010-12-30, 02:54:04,VALID,915.163,VALID,0,VALID,95.4909,VALID,0,VALID,18.7279,VALID,94,VALID,0.390234,
2010-12-30, 02:55:04,VALID,915.158,VALID,0,VALID,95.59,VALID,0,VALID,18.7279,VALID,94,VALID,0.451172,
2010-12-30, 02:56:04,VALID,915.129,VALID,0,VALID,95.6586,VALID,0,VALID,18.7084,VALID,94,VALID,0.808594,
2010-12-30, 02:57:04,VALID,915.139,VALID,0,VALID,95.6586,VALID,0,VALID,18.7084,VALID,94,VALID,0.577344,
2010-12-30, 02:58:04,VALID,915.117,VALID,0,VALID,95.5976,VALID,0,VALID,18.6903,VALID,94,VALID,0.677734,
2010-12-30, 02:59:04,VALID,915.09,VALID,0,VALID,95.6357,VALID,0,VALID,18.6903,VALID,94,VALID,0.819531,
2010-12-30, 03:00:04,VALID,915.091,VALID,0,VALID,95.6357,VALID,0,VALID,18.6499,VALID,94,VALID,0.782031,
2010-12-30, 03:01:04,VALID,915.073,VALID,0,VALID,95.712,VALID,0,VALID,18.6499,VALID,94,VALID,0.585938,
2010-12-30, 03:02:04,VALID,915.066,VALID,0,VALID,95.8187,VALID,0,VALID,18.6903,VALID,94,VALID,0.692578,
2010-12-30, 03:03:04,VALID,915.076,VALID,0,VALID,95.8035,VALID,0,VALID,18.6499,VALID,94,VALID,0.417969,
2010-12-30, 03:04:04,VALID,915.089,VALID,0,VALID,95.8035,VALID,0,VALID,18.6499,VALID,94,VALID,0.486719,
2010-12-30, 03:05:04,VALID,915.06,VALID,0,VALID,95.895,VALID,0,VALID,18.6499,VALID,94,VALID,0.534766,
2010-12-30, 03:06:04,VALID,915.123,VALID,0,VALID,95.9026,VALID,0,VALID,18.6694,VALID,94,VALID,0.914453,
2010-12-30, 03:07:04,VALID,915.081,VALID,0,VALID,95.895,VALID,0,VALID,18.6889,VALID,94,VALID,0.742969,
2010-12-30, 03:08:04,VALID,915.143,VALID,0,VALID,95.9636,VALID,0,VALID,18.7098,VALID,94,VALID,0.862891,
2010-12-30, 03:09:04,VALID,915.129,VALID,0,VALID,96.0093,VALID,0,VALID,18.6889,VALID,94,VALID,0.266016,
2010-12-30, 03:10:04,VALID,915.124,VALID,0,VALID,96.0474,VALID,0,VALID,18.6889,VALID,94,VALID,0.4125,
2010-12-30, 03:11:04,VALID,915.129,VALID,0,VALID,96.055,VALID,0,VALID,18.6694,VALID,94,VALID,0.305078,
2010-12-30, 03:12:04,VALID,915.115,VALID,0,VALID,96.116,VALID,0,VALID,18.6903,VALID,94,VALID,0.486719,
2010-12-30, 03:13:04,VALID,915.119,VALID,0,VALID,96.116,VALID,0,VALID,18.6694,VALID,94,VALID,0.503906,
2010-12-30, 03:14:04,VALID,915.133,VALID,0,VALID,96.1694,VALID,0,VALID,18.6694,VALID,94,VALID,0.375781,
2010-12-30, 03:15:04,VALID,915.151,VALID,0,VALID,96.1846,VALID,0,VALID,18.6889,VALID,94,VALID,0.470703,
2010-12-30, 03:16:04,VALID,915.15,VALID,0,VALID,96.2304,VALID,0,VALID,18.6694,VALID,94,VALID,0.307813,
2010-12-30, 03:17:04,VALID,915.126,VALID,0,VALID,96.2456,VALID,0,VALID,18.6694,VALID,94,VALID,0.453125,
2010-12-30, 03:18:04,VALID,915.156,VALID,0,VALID,96.2609,VALID,0,VALID,18.6903,VALID,94,VALID,0.45625,
2010-12-30, 03:19:04,VALID,915.148,VALID,0,VALID,96.3066,VALID,0,VALID,18.6889,VALID,93,VALID,0.046875,
2010-12-30, 03:20:04,VALID,915.157,VALID,0,VALID,96.3447,VALID,0,VALID,18.7084,VALID,94,VALID,0.373437,
2010-12-30, 03:21:04,VALID,915.161,VALID,0,VALID,96.3142,VALID,0,VALID,18.6889,VALID,94,VALID,0,
2010-12-30, 03:22:04,VALID,915.128,VALID,0,VALID,96.3447,VALID,0,VALID,18.7084,VALID,94,VALID,0.221875,
2010-12-30, 03:23:04,VALID,915.155,VALID,0,VALID,96.3524,VALID,0,VALID,18.7084,VALID,94,VALID,0.423828,
2010-12-30, 03:24:04,VALID,915.145,VALID,0,VALID,96.3752,VALID,0,VALID,18.7279,VALID,94,VALID,0.500391,
2010-12-30, 03:25:04,VALID,915.154,VALID,0,VALID,96.3752,VALID,0,VALID,18.7279,VALID,94,VALID,0.448047,
2010-12-30, 03:26:04,VALID,915.134,VALID,0,VALID,96.3676,VALID,0,VALID,18.7084,VALID,94,VALID,0.538281,
2010-12-30, 03:27:04,VALID,915.115,VALID,0,VALID,96.3676,VALID,0,VALID,18.6889,VALID,94,VALID,0.675781,
2010-12-30, 03:28:04,VALID,915.095,VALID,0,VALID,96.3524,VALID,0,VALID,18.7084,VALID,94,VALID,0.686328,
2010-12-30, 03:29:04,VALID,915.104,VALID,0,VALID,96.3524,VALID,0,VALID,18.6889,VALID,94,VALID,0.638281,
2010-12-30, 03:30:04,VALID,915.073,VALID,0,VALID,96.3752,VALID,0,VALID,18.7084,VALID,94,VALID,0.815625,
2010-12-30, 03:31:04,VALID,915.048,VALID,0,VALID,96.3219,VALID,0,VALID,18.7084,VALID,94,VALID,0.694922,
2010-12-30, 03:32:04,VALID,915.036,VALID,0,VALID,96.2761,VALID,0,VALID,18.7279,VALID,94,VALID,0.658203,
2010-12-30, 03:33:04,VALID,915.048,VALID,0,VALID,96.238,VALID,0,VALID,18.7293,VALID,94,VALID,0.537109,
2010-12-30, 03:34:04,VALID,915.021,VALID,0,VALID,96.1313,VALID,0,VALID,18.6889,VALID,94,VALID,0.709766,
2010-12-30, 03:35:04,VALID,915.011,VALID,0,VALID,96.0474,VALID,0,VALID,18.6889,VALID,94,VALID,0.810156,
2010-12-30, 03:36:04,VALID,914.999,VALID,0,VALID,95.9712,VALID,0,VALID,18.6694,VALID,94,VALID,0.848437,
2010-12-30, 03:37:04,VALID,915.003,VALID,0,VALID,95.9026,VALID,0,VALID,18.6708,VALID,94,VALID,0.910156,
2010-12-30, 03:38:04,VALID,915.026,VALID,0,VALID,95.9026,VALID,0,VALID,18.6499,VALID,94,VALID,1.00859,
2010-12-30, 03:39:04,VALID,915.031,VALID,0,VALID,95.9788,VALID,0,VALID,18.6499,VALID,94,VALID,0.832422,
2010-12-30, 03:40:04,VALID,915.013,VALID,0,VALID,95.9712,VALID,0,VALID,18.6694,VALID,94,VALID,1.15625,
2010-12-30, 03:41:04,VALID,915.032,VALID,0,VALID,95.9864,VALID,0,VALID,18.6694,VALID,94,VALID,0.900391,
2010-12-30, 03:42:04,VALID,915.04,VALID,0,VALID,95.9559,VALID,0,VALID,18.6304,VALID,94,VALID,0.795703,
2010-12-30, 03:43:04,VALID,915.018,VALID,0,VALID,95.9636,VALID,0,VALID,18.6304,VALID,94,VALID,0.743359,
2010-12-30, 03:44:04,VALID,914.994,VALID,0,VALID,96.0017,VALID,0,VALID,18.6319,VALID,94,VALID,0.815234,
2010-12-30, 03:45:04,VALID,915.017,VALID,0,VALID,96.0322,VALID,0,VALID,18.6319,VALID,94,VALID,0.876172,
2010-12-30, 03:46:04,VALID,915.013,VALID,0,VALID,96.0855,VALID,0,VALID,18.6109,VALID,94,VALID,0.844531,